GW4902 Weather Reports


time (UTC)temp
C
wind
direction
speed
KPH
gust
KPH
rain 1hr
cm
rain 24hr
cm
rain mn
cm
humidity
%
barometer
mb
20260507051600 11 0 0.0 4.8 0.00 0.00 0.00 51 1009.6
20260507051040 11 36 1.6 4.8 0.00 0.00 0.00 50 1009.7
20260507050540 10 22 1.6 4.8 0.00 0.00 0.00 48 1009.7
20260507050107 10 5 1.6 8.0 0.00 0.00 0.00 48 1009.6
20260507045538 10 5 1.6 8.0 0.00 0.00 0.00 48 1009.6
20260507045039 10 348 4.8 8.0 0.00 0.00 0.00 49 1009.7
20260507044553 10 11 1.6 6.4 0.00 0.00 0.00 49 1009.7
20260507044041 10 0 0.0 6.4 0.00 0.00 0.00 50 1009.6
20260507043538 10 26 3.2 6.4 0.00 0.00 0.00 50 1009.5
20260507043049 9 72 0.0 3.2 0.00 0.00 0.00 51 1009.5
20260507042543 9 74 0.0 3.2 0.00 0.00 0.00 51 1009.4
20260507042041 9 71 0.0 3.2 0.00 0.00 0.00 51 1009.3
20260507041546 9 71 0.0 3.2 0.00 0.00 0.00 51 1009.2
20260507041038 9 0 0.0 3.2 0.00 0.00 0.00 50 1009.1
20260507040540 9 0 0.0 3.2 0.00 0.00 0.00 49 1008.9
20260507040058 9 76 0.0 3.2 0.00 0.00 0.00 48 1008.7
20260507035538 10 71 1.6 6.4 0.00 0.00 0.00 47 1008.6
20260507035041 10 62 1.6 6.4 0.00 0.00 0.00 46 1008.6
20260507034551 10 55 3.2 6.4 0.00 0.00 0.00 46 1008.5
20260507034040 10 79 3.2 9.7 0.00 0.00 0.00 45 1008.3
20260507033539 11 96 3.2 9.7 0.00 0.00 0.00 44 1008.1
20260507033049 11 87 3.2 9.7 0.00 0.00 0.00 43 1008.0
20260507032538 11 67 3.2 9.7 0.00 0.00 0.00 42 1008.1
20260507032038 12 90 4.8 11.3 0.00 0.00 0.00 41 1007.9
20260507031554 12 69 4.8 12.9 0.00 0.00 0.00 40 1007.8
20260507031043 13 70 4.8 12.9 0.00 0.00 0.00 40 1007.8
20260507030540 13 78 6.4 12.9 0.00 0.00 0.00 39 1007.7
20260507030052 13 63 6.4 11.3 0.00 0.00 0.00 38 1007.6
20260507025540 13 40 6.4 9.7 0.00 0.00 0.00 37 1007.5
20260507025039 14 66 4.8 17.7 0.00 0.00 0.00 37 1007.4
20260507024552 14 66 8.0 22.5 0.00 0.00 0.00 36 1007.3
20260507024038 15 67 8.0 22.5 0.00 0.00 0.00 36 1007.3
20260507023543 15 67 12.9 25.7 0.00 0.00 0.00 35 1007.2
20260507023052 15 69 14.5 25.7 0.00 0.00 0.00 34 1007.2
20260507022540 15 65 12.9 25.7 0.00 0.00 0.00 33 1007.1
20260507022038 16 74 12.9 24.1 0.00 0.00 0.00 33 1007.0
20260507021559 16 72 14.5 22.5 0.00 0.00 0.00 33 1006.9
20260507021037 16 59 14.5 24.1 0.00 0.00 0.00 31 1007.0
20260507020540 16 57 16.1 32.2 0.00 0.00 0.00 30 1006.9
20260507020053 16 74 20.9 32.2 0.00 0.00 0.00 29 1006.9
20260507015541 17 67 17.7 25.7 0.00 0.00 0.00 28 1006.8
20260507015039 17 24 12.9 25.7 0.00 0.00 0.00 30 1006.8
20260507014549 17 42 14.5 25.7 0.00 0.00 0.00 29 1006.8
20260507014040 17 17 8.0 16.1 0.00 0.00 0.00 31 1006.7
20260507013541 17 30 4.8 14.5 0.00 0.00 0.00 31 1006.7
20260507013048 17 47 6.4 16.1 0.00 0.00 0.00 30 1006.6
20260507012543 17 26 6.4 19.3 0.00 0.00 0.00 30 1006.7
20260507012040 17 38 8.0 19.3 0.00 0.00 0.00 30 1006.7
20260507011549 17 5 11.3 29.0 0.00 0.00 0.00 31 1006.8
20260507011039 18 26 11.3 29.0 0.00 0.00 0.00 30 1006.7
20260507010542 18 11 17.7 29.0 0.00 0.00 0.00 30 1006.8
20260507010050 18 352 11.3 25.7 0.00 0.00 0.00 29 1006.7
20260507005539 18 323 4.8 12.9 0.00 0.00 0.00 27 1006.7
20260507005041 18 325 6.4 14.5 0.00 0.00 0.00 27 1006.7
20260507004554 18 346 4.8 22.5 0.00 0.00 0.00 28 1006.8
20260507004040 18 333 6.4 22.5 0.00 0.00 0.00 27 1006.9
20260507003539 18 333 9.7 22.5 0.00 0.00 0.00 28 1007.0
20260507003054 18 319 9.7 20.9 0.00 0.00 0.00 27 1006.9
20260507002540 19 322 8.0 19.3 0.00 0.00 0.00 26 1006.7
20260507002040 19 344 9.7 19.3 0.00 0.00 0.00 25 1006.6
20260507001548 19 352 11.3 22.5 0.00 0.00 0.00 25 1006.5
20260507001101 19 344 9.7 22.5 0.00 0.00 0.00 25 1006.4
20260507000539 19 352 11.3 20.9 0.00 0.00 0.00 25 1006.2
20260507000048 19 23 12.9 22.5 0.00 0.00 0.00 26 1006.0
20260506235539 20 45 11.3 22.5 0.00 0.00 0.00 26 1005.8
20260506235038 20 59 8.0 17.7 0.00 0.00 0.00 25 1005.7
20260506234557 20 50 8.0 19.3 0.00 0.00 0.00 25 1005.7
20260506234038 20 40 11.3 19.3 0.00 0.00 0.00 25 1005.7
20260506233539 20 24 9.7 20.9 0.00 0.00 0.00 25 1005.7
20260506233052 20 14 8.0 20.9 0.00 0.00 0.00 25 1005.7
20260506232542 20 49 9.7 20.9 0.00 0.00 0.00 26 1005.8
20260506232039 20 352 11.3 20.9 0.00 0.00 0.00 25 1005.8
20260506231549 20 323 12.9 20.9 0.00 0.00 0.00 25 1005.8
20260506231040 20 19 8.0 24.1 0.00 0.00 0.00 25 1005.9
20260506230539 20 360 11.3 24.1 0.00 0.00 0.00 25 1005.9
20260506230057 20 42 9.7 16.1 0.00 0.00 0.00 26 1005.9
20260506225540 20 69 4.8 19.3 0.00 0.00 0.00 27 1005.9
20260506225040 20 66 6.4 19.3 0.00 0.00 0.00 25 1005.9
20260506224548 20 352 9.7 19.3 0.00 0.00 0.00 25 1006.1
20260506224039 20 58 4.8 24.1 0.00 0.00 0.00 26 1006.0
20260506223539 20 32 9.7 24.1 0.00 0.00 0.00 24 1006.0
20260506223056 20 42 6.4 17.7 0.00 0.00 0.00 24 1006.0
20260506222540 20 30 6.4 16.1 0.00 0.00 0.00 24 1006.0
20260506222043 20 15 6.4 20.9 0.00 0.00 0.00 26 1006.0
20260506221547 20 17 9.7 20.9 0.00 0.00 0.00 24 1006.0
20260506221042 20 355 11.3 20.9 0.00 0.00 0.00 26 1006.2
20260506220539 20 350 3.2 17.7 0.00 0.00 0.00 27 1006.2
20260506220054 20 31 8.0 14.5 0.00 0.00 0.00 26 1006.3
20260506215539 20 65 4.8 20.9 0.00 0.00 0.00 27 1006.2
20260506215040 20 29 6.4 20.9 0.00 0.00 0.00 25 1006.2
20260506214547 20 44 9.7 20.9 0.00 0.00 0.00 24 1006.3
20260506214040 20 30 8.0 19.3 0.00 0.00 0.00 24 1006.3
20260506213539 20 19 9.7 19.3 0.00 0.00 0.00 26 1006.3
20260506213053 20 41 8.0 20.9 0.00 0.00 0.00 26 1006.4
20260506212541 20 64 12.9 20.9 0.00 0.00 0.00 24 1006.5
20260506212040 20 35 8.0 22.5 0.00 0.00 0.00 25 1006.5
20260506211549 20 30 9.7 22.5 0.00 0.00 0.00 24 1006.4
20260506211039 21 33 12.9 20.9 0.00 0.00 0.00 25 1006.5
20260506210540 21 58 8.0 30.6 0.00 0.00 0.00 27 1006.6
20260506210054 21 5 9.7 30.6 0.00 0.00 0.00 26 1006.6
20260506205539 20 31 14.5 29.0 0.00 0.00 0.00 24 1006.5
20260506205039 20 48 12.9 40.2 0.00 0.00 0.00 24 1006.6
20260506204556 20 11 14.5 40.2 0.00 0.00 0.00 25 1006.5
20260506204040 20 86 6.4 19.3 0.00 0.00 0.00 27 1006.6
20260506203540 20 96 9.7 25.7 0.00 0.00 0.00 24 1006.6
20260506203052 21 15 12.9 25.7 0.00 0.00 0.00 23 1006.8
20260506202540 21 30 9.7 16.1 0.00 0.00 0.00 24 1006.7
20260506202039 21 94 3.2 14.5 0.00 0.00 0.00 24 1006.8
20260506201553 21 316 4.8 12.9 0.00 0.00 0.00 23 1006.8
20260506201040 21 211 1.6 9.7 0.00 0.00 0.00 22 1006.9
20260506200538 21 305 1.6 9.7 0.00 0.00 0.00 25 1007.0
20260506200108 21 125 4.8 12.9 0.00 0.00 0.00 23 1007.0
20260506195539 21 0 4.8 12.9 0.00 0.00 0.00 22 1007.0
20260506195041 21 96 1.6 8.0 0.00 0.00 0.00 23 1007.0
20260506194606 21 236 3.2 11.3 0.00 0.00 0.00 25 1007.0
20260506194040 21 208 3.2 11.3 0.00 0.00 0.00 28 1007.1
20260506193543 20 160 3.2 11.3 0.00 0.00 0.00 25 1007.2
20260506193049 20 165 1.6 8.0 0.00 0.00 0.00 28 1007.3
20260506192539 19 343 3.2 11.3 0.00 0.00 0.00 25 1007.3
20260506192043 19 55 3.2 12.9 0.00 0.00 0.00 26 1007.3
20260506191551 19 57 4.8 14.5 0.00 0.00 0.00 29 1007.4
20260506191039 20 29 6.4 14.5 0.00 0.00 0.00 26 1007.4
20260506190538 20 87 4.8 14.5 0.00 0.00 0.00 28 1007.5
20260506190050 20 176 3.2 12.9 0.00 0.00 0.00 28 1007.6
20260506185538 20 117 4.8 14.5 0.00 0.00 0.00 26 1007.6
20260506185043 19 136 4.8 14.5 0.00 0.00 0.00 28 1007.6
20260506184559 19 157 4.8 16.1 0.00 0.00 0.00 27 1007.7
20260506184040 18 168 6.4 19.3 0.00 0.00 0.00 28 1007.7
20260506183539 18 173 6.4 19.3 0.00 0.00 0.00 28 1007.8
20260506183103 18 113 9.7 16.1 0.00 0.00 0.00 27 1007.7
20260506182539 18 155 4.8 19.3 0.00 0.00 0.00 30 1007.7
20260506182039 18 148 6.4 19.3 0.00 0.00 0.00 29 1007.8
20260506181559 18 160 8.0 17.7 0.00 0.00 0.00 28 1007.9
20260506181039 18 137 6.4 14.5 0.00 0.00 0.00 29 1008.0
20260506180541 18 182 6.4 14.5 0.00 0.00 0.00 31 1008.0
20260506180048 18 149 4.8 16.1 0.00 0.00 0.00 33 1008.0
20260506175542 17 150 6.4 16.1 0.00 0.00 0.00 28 1008.0
20260506175040 17 146 4.8 14.5 0.00 0.00 0.00 30 1008.1
20260506174551 17 109 4.8 14.5 0.00 0.00 0.00 32 1008.2
20260506174039 17 100 8.0 16.1 0.00 0.00 0.00 30 1008.4
20260506173540 16 144 6.4 16.1 0.00 0.00 0.00 31 1008.4
20260506173054 16 139 6.4 17.7 0.00 0.00 0.00 33 1008.6
20260506172539 16 157 8.0 17.7 0.00 0.00 0.00 31 1008.6
20260506172038 16 170 4.8 17.7 0.00 0.00 0.00 34 1008.7
20260506171552 15 145 6.4 17.7 0.00 0.00 0.00 31 1008.8
20260506171039 15 134 8.0 17.7 0.00 0.00 0.00 34 1008.9
20260506170540 15 175 6.4 14.5 0.00 0.00 0.00 34 1009.0
20260506170054 15 132 8.0 14.5 0.00 0.00 0.00 32 1009.0
20260506165539 14 129 6.4 19.3 0.00 0.00 0.00 33 1009.0
20260506165039 14 194 6.4 19.3 0.00 0.00 0.00 35 1009.2
20260506164552 14 190 6.4 14.5 0.00 0.00 0.00 34 1009.3
20260506164039 13 129 4.8 19.3 0.00 0.00 0.00 36 1009.3
20260506163538 13 192 8.0 19.3 0.00 0.00 0.00 34 1009.4
20260506163054 13 126 8.0 17.7 0.00 0.00 0.00 35 1009.4
20260506162538 12 172 9.7 17.7 0.00 0.00 0.00 34 1009.5
20260506162040 12 155 6.4 14.5 0.00 0.00 0.00 39 1009.4
20260506161603 12 167 6.4 14.5 0.00 0.00 0.00 37 1009.6
20260506161038 12 134 6.4 16.1 0.00 0.00 0.00 38 1009.6
20260506160538 11 130 6.4 17.7 0.00 0.00 0.00 38 1009.8
20260506160056 11 144 8.0 17.7 0.00 0.00 0.00 39 1009.8
20260506155538 11 190 8.0 16.1 0.00 0.00 0.00 40 1009.9
20260506155041 11 161 6.4 12.9 0.00 0.00 0.00 43 1010.0
20260506154556 10 191 4.8 12.9 0.00 0.00 0.00 41 1010.0
20260506154041 10 192 4.8 11.3 0.00 0.00 0.00 43 1010.0
20260506153539 10 156 6.4 12.9 0.00 0.00 0.00 42 1010.1
20260506153051 9 152 4.8 12.9 0.00 0.00 0.00 45 1010.2
20260506152539 8 163 3.2 12.9 0.00 0.00 0.00 45 1010.2
20260506152043 8 191 6.4 12.9 0.00 0.00 0.00 44 1010.2
20260506151606 8 198 6.4 14.5 0.00 0.00 0.00 46 1010.4
20260506151038 8 166 3.2 14.5 0.00 0.00 0.00 46 1010.4
20260506150538 7 169 4.8 11.3 0.00 0.00 0.00 47 1010.5
20260506150053 7 170 6.4 11.3 0.00 0.00 0.00 48 1010.6
20260506145539 7 187 3.2 11.3 0.00 0.00 0.00 49 1010.7
20260506145039 6 217 3.2 11.3 0.00 0.00 0.00 50 1010.7
20260506144552 6 187 4.8 11.3 0.00 0.00 0.00 50 1010.7
20260506144042 5 159 4.8 9.7 0.00 0.00 0.00 52 1010.9
20260506143540 5 184 3.2 9.7 0.00 0.00 0.00 52 1010.9
20260506143053 5 0 4.8 9.7 0.00 0.00 0.00 53 1010.9
20260506142538 4 167 4.8 9.7 0.00 0.00 0.00 54 1011.0
20260506142038 3 191 3.2 9.7 0.00 0.00 0.00 55 1011.0
20260506141554 3 167 4.8 9.7 0.00 0.00 0.00 55 1011.0
20260506141039 3 195 3.2 9.7 0.00 0.00 0.00 56 1011.2
20260506140542 3 204 3.2 9.7 0.00 0.00 0.00 57 1011.2
20260506140105 2 181 4.8 9.7 0.00 0.00 0.00 58 1011.4
20260506135540 2 180 4.8 9.7 0.00 0.00 0.00 58 1011.4
20260506135039 2 207 4.8 9.7 0.00 0.00 0.00 59 1011.6
20260506134558 1 184 3.2 11.3 0.00 0.00 0.00 60 1011.6
20260506134039 1 192 4.8 11.3 0.00 0.00 0.00 62 1011.7
20260506133540 1 163 1.6 9.7 0.00 0.00 0.00 63 1011.6
20260506133054 0 221 3.2 9.7 0.00 0.00 0.00 64 1011.7
20260506132540 0 163 3.2 9.7 0.00 0.00 0.00 64 1011.8
20260506132043 0 183 3.2 8.0 0.00 0.00 0.00 65 1011.7
20260506131554 0 173 3.2 8.0 0.00 0.00 0.00 67 1011.7
20260506131040 0 185 3.2 6.4 0.00 0.00 0.00 67 1011.7
20260506130540 -1 182 0.0 3.2 0.00 0.00 0.00 68 1011.6
20260506130108 -1 0 0.0 3.2 0.00 0.00 0.00 68 1011.5
20260506125539 -1 182 0.0 3.2 0.00 0.00 0.00 68 1011.5
20260506125040 -2 182 0.0 3.2 0.00 0.00 0.00 68 1011.6
20260506124553 -2 0 0.0 3.2 0.00 0.00 0.00 68 1011.7
20260506124038 -2 0 0.0 1.6 0.00 0.00 0.00 67 1011.6
20260506123539 -2 0 0.0 0.0 0.00 0.00 0.00 67 1011.7
20260506123053 -2 0 0.0 1.6 0.00 0.00 0.00 67 1011.6
20260506122539 -2 0 0.0 1.6 0.00 0.00 0.00 67 1011.6
20260506122040 -2 0 0.0 0.0 0.00 0.00 0.00 66 1011.7
20260506121551 -2 0 0.0 1.6 0.00 0.00 0.00 66 1011.8
20260506121039 -2 0 0.0 1.6 0.00 0.00 0.00 66 1011.9
20260506120539 -2 0 0.0 1.6 0.00 0.00 0.00 65 1011.9
20260506120057 -2 0 0.0 0.0 0.00 0.00 0.00 65 1012.0
20260506115540 -2 0 0.0 0.0 0.00 0.00 0.00 65 1012.0
20260506115039 -1 0 0.0 0.0 0.00 0.00 0.00 64 1012.1
20260506114555 -1 0 0.0 1.6 0.00 0.00 0.00 64 1012.2
20260506114039 -1 0 0.0 4.8 0.00 0.00 0.00 64 1012.3
20260506113538 -1 0 0.0 4.8 0.00 0.00 0.00 64 1012.3
20260506113104 -1 0 1.6 4.8 0.00 0.00 0.00 63 1012.4
20260506112539 -1 182 0.0 3.2 0.00 0.00 0.00 63 1012.4
20260506112038 -1 182 0.0 3.2 0.00 0.00 0.00 62 1012.5
20260506111546 -1 0 0.0 4.8 0.00 0.00 0.00 61 1012.5
20260506111039 -1 0 0.0 4.8 0.00 0.00 0.00 61 1012.7
20260506110539 -1 182 1.6 4.8 0.00 0.00 0.00 61 1012.7
20260506110100 -1 182 0.0 4.8 0.00 0.00 0.00 60 1012.8
20260506105539 -1 0 0.0 6.4 0.00 0.00 0.00 60 1012.7
20260506105039 0 182 1.6 6.4 0.00 0.00 0.00 60 1012.7
20260506104548 0 163 1.6 6.4 0.00 0.00 0.00 59 1012.9
20260506104039 0 158 1.6 4.8 0.00 0.00 0.00 59 1012.9
20260506103539 0 174 1.6 4.8 0.00 0.00 0.00 58 1012.9
20260506103048 0 0 0.0 4.8 0.00 0.00 0.00 58 1013.0
20260506102539 0 202 1.6 9.7 0.00 0.00 0.00 58 1013.1
20260506102038 0 196 3.2 9.7 0.00 0.00 0.00 58 1013.2
20260506101555 0 167 1.6 8.0 0.00 0.00 0.00 57 1013.2
20260506101039 0 150 1.6 6.4 0.00 0.00 0.00 57 1013.2
20260506100539 0 171 1.6 6.4 0.00 0.00 0.00 56 1013.3
20260506100051 0 165 1.6 11.3 0.00 0.00 0.00 56 1013.5
20260506095543 0 174 1.6 14.5 0.00 0.00 0.00 56 1013.6
20260506095039 0 178 4.8 14.5 0.00 0.00 0.00 55 1013.6
20260506094557 0 169 3.2 12.9 0.00 0.00 0.00 55 1013.7
20260506094038 0 173 4.8 12.9 0.00 0.00 0.00 55 1013.8
20260506093542 0 140 4.8 12.9 0.00 0.00 0.00 55 1014.0
20260506093054 0 163 4.8 11.3 0.00 0.00 0.00 55 1014.0
20260506092542 0 176 4.8 12.9 0.00 0.00 0.00 55 1013.9
20260506092039 0 161 3.2 12.9 0.00 0.00 0.00 55 1014.2
20260506091549 0 169 4.8 16.1 0.00 0.00 0.00 55 1014.2
20260506091043 0 175 6.4 16.1 0.00 0.00 0.00 54 1014.2
20260506090541 0 169 4.8 14.5 0.00 0.00 0.00 54 1014.4
20260506090048 0 163 3.2 14.5 0.00 0.00 0.00 54 1014.4
20260506085538 0 0 3.2 12.9 0.00 0.00 0.00 54 1014.5
20260506085039 0 165 6.4 12.9 0.00 0.00 0.00 53 1014.5
20260506084551 0 163 6.4 11.3 0.00 0.00 0.00 53 1014.5
20260506084039 0 155 3.2 11.3 0.00 0.00 0.00 53 1014.6
20260506083541 1 169 1.6 12.9 0.00 0.00 0.00 53 1014.7
20260506083048 1 171 4.8 14.5 0.00 0.00 0.00 53 1014.6
20260506082542 1 163 6.4 14.5 0.00 0.00 0.00 53 1014.7
20260506082044 1 166 4.8 12.9 0.00 0.00 0.00 53 1014.8
20260506081548 1 142 3.2 12.9 0.00 0.00 0.00 52 1014.9
20260506081039 1 175 4.8 11.3 0.00 0.00 0.00 52 1015.0
20260506080539 1 179 3.2 11.3 0.00 0.00 0.00 52 1015.0
20260506073048 1 123 1.6 9.7 0.00 0.00 0.00 49 1015.6
20260506072539 1 163 1.6 12.9 0.00 0.00 0.00 49 1015.6
20260506072041 1 161 4.8 12.9 0.00 0.00 0.00 49 1015.6
20260506071604 1 140 3.2 12.9 0.00 0.00 0.00 49 1015.7
20260506071039 1 154 4.8 12.9 0.00 0.00 0.00 49 1015.8
20260506070539 1 159 6.4 14.5 0.00 0.00 0.00 49 1015.8
20260506062039 1 160 4.8 16.1 0.00 0.00 0.00 51 1016.3
20260506061551 1 139 4.8 16.1 0.00 0.00 0.00 52 1016.4
20260506061040 1 113 4.8 14.5 0.00 0.00 0.00 53 1016.4
20260506060539 1 155 4.8 14.5 0.00 0.00 0.00 54 1016.4